WAT497 PAFA-CYCP

Flight info

Callsign WAT497
Flight time N/A
Altitude 39000
Route RDFLG J502 ORT J515 YXY Q969 MUXAT DCT YXS DCT 53N120W
Aircraft CL60/M-SADE3FGHIJ3J4J7P2RWXY/HB1D1

Departure

Time 2026-04-22 03:48
Airport Fairbanks International Airport (PAFA)

Arrival

Time N/A
Airport Blue River Airport (CYCP)
Time Latitude Longitude Altitude Speed Heading
2026-04-22 03:34 64.81503 -147.84378 444 ft 0 kts 39°
2026-04-22 03:40 64.81507 -147.84372 444 ft 1 kts 39°
2026-04-22 03:40 64.81531 -147.84370 443 ft 6 kts 314°
2026-04-22 03:40 64.81551 -147.84457 443 ft 0 kts 290°
2026-04-22 03:40 64.81548 -147.84474 443 ft 2 kts 217°
2026-04-22 03:41 64.81522 -147.84509 443 ft 5 kts 209°
2026-04-22 03:41 64.81486 -147.84560 444 ft 6 kts 210°
2026-04-22 03:41 64.81442 -147.84633 444 ft 8 kts 222°
2026-04-22 03:41 64.81403 -147.84744 444 ft 9 kts 264°
2026-04-22 03:42 64.81433 -147.84903 442 ft 11 kts 311°
2026-04-22 03:42 64.81476 -147.85019 441 ft 0 kts 316°
2026-04-22 03:42 64.81477 -147.85020 441 ft 2 kts 316°
2026-04-22 03:42 64.81490 -147.85100 441 ft 7 kts 224°
2026-04-22 03:43 64.81440 -147.85194 443 ft 11 kts 219°
2026-04-22 03:43 64.81377 -147.85316 442 ft 8 kts 220°
2026-04-22 03:43 64.81381 -147.85440 442 ft 10 kts 311°
2026-04-22 03:43 64.81431 -147.85586 441 ft 12 kts 307°
2026-04-22 03:44 64.81485 -147.85753 443 ft 12 kts 308°
2026-04-22 03:44 64.81540 -147.85915 444 ft 13 kts 308°
2026-04-22 03:44 64.81598 -147.86089 445 ft 13 kts 308°
2026-04-22 03:44 64.81657 -147.86259 447 ft 13 kts 322°
2026-04-22 03:45 64.81737 -147.86214 447 ft 14 kts 40°
2026-04-22 03:45 64.81818 -147.86060 447 ft 15 kts 37°
2026-04-22 03:45 64.81905 -147.85901 447 ft 16 kts 39°
2026-04-22 03:45 64.81925 -147.85861 438 ft 16 kts 39°
2026-04-22 03:46 64.82021 -147.85687 438 ft 17 kts 38°
2026-04-22 03:46 64.82127 -147.85495 438 ft 20 kts 38°
2026-04-22 03:46 64.82242 -147.85289 437 ft 21 kts 39°
2026-04-22 03:46 64.82361 -147.85063 437 ft 19 kts 41°
2026-04-22 03:47 64.82452 -147.84880 436 ft 14 kts 52°
2026-04-22 03:47 64.82420 -147.84677 435 ft 16 kts 160°
2026-04-22 03:47 64.82318 -147.84807 434 ft 21 kts 219°
2026-04-22 03:47 64.82037 -147.85332 435 ft 89 kts 218°
2026-04-22 03:48 64.81368 -147.86551 443 ft 152 kts 220°
2026-04-22 03:48 64.80536 -147.88171 1151 ft 155 kts 225°
2026-04-22 03:48 64.79758 -147.89923 1922 ft 160 kts 229°
2026-04-22 03:48 64.78976 -147.91945 2300 ft 170 kts 222°
2026-04-22 03:49 64.77826 -147.92830 2358 ft 188 kts 174°
2026-04-22 03:49 64.76722 -147.91322 2380 ft 188 kts 124°
2026-04-22 03:49 64.76160 -147.88611 2855 ft 189 kts 116°
2026-04-22 03:49 64.75578 -147.85742 3352 ft 204 kts 118°
2026-04-22 03:50 64.74905 -147.82773 3860 ft 208 kts 122°
2026-04-22 03:50 64.74170 -147.79874 4360 ft 209 kts 126°
2026-04-22 03:50 64.73369 -147.77046 4870 ft 210 kts 128°
2026-04-22 03:50 64.72495 -147.74280 5408 ft 225 kts 131°
2026-04-22 03:51 64.71465 -147.71431 6135 ft 235 kts 136°
2026-04-22 03:51 64.70397 -147.68610 6901 ft 228 kts 137°
2026-04-22 03:51 64.69376 -147.65897 7563 ft 221 kts 137°
2026-04-22 03:51 64.68351 -147.63203 8113 ft 233 kts 138°
2026-04-22 03:52 64.67340 -147.60123 8685 ft 253 kts 127°
2026-04-22 03:52 64.66397 -147.56480 9337 ft 272 kts 126°
2026-04-22 03:52 64.65422 -147.52678 10205 ft 281 kts 126°
2026-04-22 03:52 64.64408 -147.48735 11139 ft 287 kts 127°
2026-04-22 03:53 64.63387 -147.44777 12046 ft 292 kts 126°
2026-04-22 03:53 64.62328 -147.40683 12925 ft 298 kts 127°
2026-04-22 03:53 64.61259 -147.36554 13837 ft 302 kts 127°
2026-04-22 03:53 64.60174 -147.32381 14683 ft 306 kts 127°
2026-04-22 03:54 64.59066 -147.28128 15432 ft 312 kts 127°
2026-04-22 03:54 64.57940 -147.23820 16112 ft 320 kts 127°
2026-04-22 03:54 64.56780 -147.19392 16791 ft 326 kts 127°
2026-04-22 03:54 64.55584 -147.14833 17488 ft 332 kts 127°
2026-04-22 03:55 64.54385 -147.10275 18115 ft 338 kts 126°
2026-04-22 03:55 64.53157 -147.05614 18774 ft 344 kts 126°
2026-04-22 03:55 64.51899 -147.00853 19373 ft 349 kts 126°
2026-04-22 03:55 64.50620 -146.96019 19930 ft 355 kts 126°
2026-04-22 03:56 64.49333 -146.91171 20499 ft 361 kts 126°
2026-04-22 03:56 64.48010 -146.86195 21096 ft 365 kts 126°
2026-04-22 03:56 64.47688 -146.84987 21171 ft 366 kts 126°
2026-04-22 03:56 64.47623 -146.84740 21198 ft 366 kts 126°
2026-04-22 03:58 64.47095 -146.82759 21409 ft 369 kts 126°
2026-04-22 03:58 64.45729 -146.77640 21911 ft 375 kts 126°
2026-04-22 03:59 64.44362 -146.72527 22380 ft 381 kts 126°
2026-04-22 03:59 64.42949 -146.67252 22853 ft 386 kts 126°
2026-04-22 03:59 64.41542 -146.62019 23295 ft 391 kts 125°
2026-04-22 03:59 64.40117 -146.56726 24044 ft 383 kts 123°
2026-04-22 04:00 64.38741 -146.51627 24976 ft 370 kts 121°
2026-04-22 04:00 64.37424 -146.46770 25922 ft 357 kts 119°
2026-04-22 04:00 64.36140 -146.42050 26878 ft 344 kts 118°
2026-04-22 04:00 64.34871 -146.37383 27416 ft 344 kts 118°
2026-04-22 04:01 64.33597 -146.32701 27716 ft 351 kts 119°
2026-04-22 04:01 64.32291 -146.27913 28090 ft 357 kts 124°
2026-04-22 04:01 64.30945 -146.23000 28116 ft 370 kts 124°
2026-04-22 04:01 64.29554 -146.17995 28404 ft 374 kts 125°
2026-04-22 04:02 64.28114 -146.12978 28756 ft 375 kts 125°
2026-04-22 04:02 64.26685 -146.08022 29097 ft 376 kts 125°
2026-04-22 04:02 64.25219 -146.02945 29412 ft 378 kts 125°
2026-04-22 04:02 64.23762 -145.97910 29711 ft 380 kts 125°
2026-04-22 04:03 64.22292 -145.92844 30002 ft 381 kts 124°
2026-04-22 04:03 64.20835 -145.87830 30270 ft 383 kts 124°
2026-04-22 04:03 64.19333 -145.82672 30524 ft 386 kts 124°
2026-04-22 04:03 64.17851 -145.77597 30775 ft 387 kts 124°
2026-04-22 04:04 64.16361 -145.72505 31006 ft 389 kts 124°
2026-04-22 04:04 64.14858 -145.67380 31235 ft 391 kts 124°
2026-04-22 04:04 64.13327 -145.62169 31444 ft 393 kts 124°
2026-04-22 04:04 64.11801 -145.56990 31650 ft 395 kts 124°
2026-04-22 04:05 64.10264 -145.51784 31848 ft 397 kts 124°
2026-04-22 04:05 64.08725 -145.46582 32042 ft 398 kts 124°
2026-04-22 04:05 64.07182 -145.41383 32237 ft 400 kts 124°
2026-04-22 04:05 64.05637 -145.36183 32424 ft 401 kts 124°
2026-04-22 04:06 64.04060 -145.30894 32606 ft 402 kts 125°
2026-04-22 04:06 64.02503 -145.25681 32771 ft 404 kts 125°
2026-04-22 04:06 64.00921 -145.20395 32947 ft 405 kts 125°
2026-04-22 04:06 63.99326 -145.15082 33132 ft 406 kts 126°
2026-04-22 04:07 63.97745 -145.09825 33307 ft 408 kts 126°
2026-04-22 04:07 63.96129 -145.04465 33466 ft 409 kts 126°
2026-04-22 04:07 63.94536 -144.99194 33633 ft 410 kts 126°
2026-04-22 04:07 63.92918 -144.93852 33798 ft 411 kts 126°
2026-04-22 04:08 63.91315 -144.88574 33968 ft 412 kts 126°
2026-04-22 04:08 63.89691 -144.83240 34156 ft 413 kts 126°
2026-04-22 04:08 63.88058 -144.77887 34330 ft 413 kts 126°
2026-04-22 04:08 63.86428 -144.72556 34518 ft 413 kts 126°
2026-04-22 04:09 63.84793 -144.67223 34693 ft 413 kts 126°
2026-04-22 04:09 63.83168 -144.61931 34868 ft 413 kts 126°
2026-04-22 04:09 63.81540 -144.56645 35035 ft 412 kts 126°
2026-04-22 04:09 63.79912 -144.51373 35206 ft 412 kts 126°
2026-04-22 04:10 63.78279 -144.46095 35360 ft 412 kts 126°
2026-04-22 04:10 63.76629 -144.40773 35519 ft 412 kts 126°
2026-04-22 04:10 63.74992 -144.35507 35662 ft 412 kts 126°
2026-04-22 04:10 63.73345 -144.30222 35802 ft 412 kts 127°
2026-04-22 04:11 63.71720 -144.25020 35924 ft 412 kts 127°
2026-04-22 04:11 63.70068 -144.19740 36051 ft 412 kts 127°
2026-04-22 04:11 63.68415 -144.14473 36157 ft 413 kts 127°
2026-04-22 04:11 63.66756 -144.09198 36268 ft 414 kts 127°
2026-04-22 04:12 63.65119 -144.04005 36376 ft 414 kts 127°
2026-04-22 04:12 63.63459 -143.98752 36493 ft 414 kts 127°
2026-04-22 04:12 63.61798 -143.93507 36599 ft 414 kts 127°
2026-04-22 04:12 63.60133 -143.88261 36700 ft 414 kts 126°
2026-04-22 04:13 63.58466 -143.83023 36801 ft 414 kts 127°
2026-04-22 04:13 63.56797 -143.77789 36896 ft 414 kts 127°
2026-04-22 04:13 63.53447 -143.67323 37068 ft 415 kts 127°
2026-04-22 04:14 63.50090 -143.56882 37238 ft 415 kts 127°
2026-04-22 04:14 63.46720 -143.46448 37382 ft 415 kts 126°
2026-04-22 04:15 63.43348 -143.36057 37533 ft 415 kts 126°
2026-04-22 04:15 63.39977 -143.25714 37657 ft 415 kts 127°
2026-04-22 04:16 63.34884 -143.10179 37843 ft 416 kts 127°
2026-04-22 04:17 63.31467 -142.99817 37981 ft 416 kts 128°
2026-04-22 04:17 63.28058 -142.89523 38112 ft 416 kts 127°
2026-04-22 04:18 63.24647 -142.79271 38257 ft 416 kts 128°
2026-04-22 04:18 63.21202 -142.68967 38399 ft 415 kts 127°
2026-04-22 04:19 63.17789 -142.58803 38488 ft 416 kts 127°
2026-04-22 04:19 63.14335 -142.48561 38599 ft 416 kts 127°
2026-04-22 04:20 63.10900 -142.38420 38731 ft 415 kts 127°
2026-04-22 04:20 63.07450 -142.28284 38778 ft 416 kts 128°
2026-04-22 04:21 63.03963 -142.18085 38787 ft 417 kts 128°
2026-04-22 04:21 63.00501 -142.08000 38782 ft 416 kts 128°
2026-04-22 04:22 62.97016 -141.97897 38781 ft 414 kts 128°
2026-04-22 04:22 62.93647 -141.87746 38788 ft 414 kts 124°
2026-04-22 04:23 62.90528 -141.77194 38782 ft 415 kts 124°
2026-04-22 04:23 62.87389 -141.66640 38775 ft 416 kts 124°
2026-04-22 04:24 62.84249 -141.56134 38777 ft 416 kts 124°
2026-04-22 04:24 62.81071 -141.45555 38771 ft 416 kts 124°
2026-04-22 04:25 62.77912 -141.35091 38786 ft 415 kts 124°
2026-04-22 04:25 62.74738 -141.24629 38792 ft 416 kts 125°
2026-04-22 04:26 62.71571 -141.14238 38774 ft 416 kts 125°
2026-04-22 04:26 62.68362 -141.03760 38773 ft 416 kts 125°
2026-04-22 04:27 62.65156 -140.93333 38781 ft 416 kts 125°
2026-04-22 04:27 62.61964 -140.83005 38796 ft 416 kts 125°
2026-04-22 04:28 62.58728 -140.72584 38791 ft 417 kts 125°
2026-04-22 04:28 62.55498 -140.62228 38773 ft 418 kts 125°
2026-04-22 04:29 62.52238 -140.51825 38764 ft 419 kts 125°
2026-04-22 04:29 62.48983 -140.41483 38754 ft 419 kts 125°
2026-04-22 04:30 62.45698 -140.31094 38757 ft 418 kts 126°
2026-04-22 04:30 62.42432 -140.20810 38759 ft 417 kts 126°
2026-04-22 04:31 62.39172 -140.10593 38777 ft 417 kts 126°
2026-04-22 04:31 62.35870 -140.00293 38787 ft 418 kts 126°
2026-04-22 04:32 62.32586 -139.90093 38774 ft 419 kts 126°
2026-04-22 04:32 62.29275 -139.79851 38767 ft 419 kts 126°
2026-04-22 04:33 62.25962 -139.69655 38770 ft 419 kts 126°
2026-04-22 04:33 62.22642 -139.59479 38749 ft 419 kts 126°
2026-04-22 04:34 62.19306 -139.49298 38729 ft 420 kts 126°
2026-04-22 04:34 62.15962 -139.39137 38717 ft 420 kts 126°
2026-04-22 04:35 62.12596 -139.28958 38703 ft 420 kts 127°
2026-04-22 04:35 62.09242 -139.18858 38695 ft 420 kts 127°
2026-04-22 04:36 62.05890 -139.08812 38705 ft 420 kts 127°
2026-04-22 04:36 62.02513 -138.98730 38732 ft 420 kts 127°
2026-04-22 04:37 61.99106 -138.88608 38705 ft 421 kts 127°
2026-04-22 04:37 61.95702 -138.78534 38690 ft 421 kts 127°
2026-04-22 04:38 61.92304 -138.68524 38684 ft 421 kts 127°
2026-04-22 04:38 61.88889 -138.58508 38702 ft 420 kts 127°
2026-04-22 04:39 61.85494 -138.48595 38706 ft 420 kts 127°
2026-04-22 04:39 61.82053 -138.38591 38712 ft 420 kts 127°
2026-04-22 04:40 61.78626 -138.28670 38729 ft 420 kts 128°
2026-04-22 04:40 61.75188 -138.18759 38721 ft 420 kts 128°
2026-04-22 04:41 61.71761 -138.08919 38698 ft 420 kts 128°
2026-04-22 04:41 61.68318 -137.99080 38701 ft 419 kts 128°
2026-04-22 04:42 61.64860 -137.89238 38690 ft 420 kts 128°
2026-04-22 04:42 61.61401 -137.79436 38692 ft 420 kts 128°
2026-04-22 04:43 61.57925 -137.69629 38701 ft 420 kts 128°
2026-04-22 04:43 61.54446 -137.59853 38698 ft 420 kts 128°
2026-04-22 04:44 61.50957 -137.50092 38710 ft 419 kts 128°
2026-04-22 04:44 61.47477 -137.40395 38722 ft 419 kts 128°
2026-04-22 04:45 61.43995 -137.30734 38724 ft 419 kts 129°
2026-04-22 04:45 61.40493 -137.21059 38720 ft 419 kts 129°
2026-04-22 04:46 61.36999 -137.11446 38717 ft 419 kts 129°
2026-04-22 04:46 61.33484 -137.01814 38728 ft 418 kts 129°
2026-04-22 04:47 61.29964 -136.92212 38732 ft 418 kts 129°
2026-04-22 04:47 61.26458 -136.82684 38730 ft 418 kts 129°
2026-04-22 04:48 61.22929 -136.73134 38716 ft 419 kts 129°
2026-04-22 04:48 61.19392 -136.63602 38734 ft 419 kts 129°
2026-04-22 04:49 61.15853 -136.54105 38750 ft 419 kts 130°
2026-04-22 04:49 61.12301 -136.44612 38753 ft 420 kts 130°
2026-04-22 04:50 61.08728 -136.35103 38719 ft 421 kts 130°
2026-04-22 04:50 61.05139 -136.25589 38676 ft 421 kts 131°
2026-04-22 04:51 61.01562 -136.16145 38684 ft 419 kts 131°
2026-04-22 04:51 60.98004 -136.06790 38722 ft 418 kts 131°
2026-04-22 04:52 60.94426 -135.97421 38742 ft 419 kts 131°
2026-04-22 04:52 60.90820 -135.88016 38775 ft 419 kts 131°
2026-04-22 04:53 60.87222 -135.78673 38797 ft 420 kts 131°
2026-04-22 04:53 60.83601 -135.69305 38785 ft 420 kts 131°
2026-04-22 04:54 60.79993 -135.60010 38776 ft 420 kts 131°
2026-04-22 04:54 60.76367 -135.50703 38799 ft 418 kts 131°
2026-04-22 04:55 60.72749 -135.41460 38788 ft 419 kts 131°
2026-04-22 04:55 60.69119 -135.32217 38782 ft 419 kts 131°
2026-04-22 04:56 60.65494 -135.23027 38774 ft 419 kts 132°
2026-04-22 04:56 60.61798 -135.13936 38809 ft 416 kts 138°
2026-04-22 04:57 60.57504 -135.06342 38797 ft 414 kts 143°
2026-04-22 04:57 60.53107 -134.98846 38807 ft 413 kts 143°
2026-04-22 04:58 60.48727 -134.91405 38766 ft 414 kts 143°
2026-04-22 04:58 60.44323 -134.83945 38775 ft 414 kts 144°
2026-04-22 04:59 60.39937 -134.76541 38780 ft 414 kts 143°
2026-04-22 04:59 60.35537 -134.69138 38792 ft 414 kts 143°
2026-04-22 05:00 60.31125 -134.61742 38815 ft 414 kts 144°
2026-04-22 05:00 60.26725 -134.54390 38812 ft 414 kts 143°
2026-04-22 05:01 60.22304 -134.47032 38787 ft 414 kts 144°
2026-04-22 05:01 60.17871 -134.39677 38780 ft 413 kts 144°
2026-04-22 05:02 60.13485 -134.32426 38776 ft 412 kts 144°
2026-04-22 05:02 60.09059 -134.25136 38783 ft 411 kts 145°
2026-04-22 05:03 60.04662 -134.17921 38787 ft 412 kts 145°
2026-04-22 05:03 60.00252 -134.10709 38790 ft 411 kts 145°
2026-04-22 05:04 59.95854 -134.03540 38787 ft 411 kts 145°
2026-04-22 05:04 59.91458 -133.96402 38790 ft 410 kts 145°
2026-04-22 05:05 59.87059 -133.89284 38796 ft 410 kts 145°
2026-04-22 05:05 59.82625 -133.82134 38812 ft 411 kts 145°
2026-04-22 05:06 59.78205 -133.75034 38843 ft 411 kts 145°
2026-04-22 05:06 59.73773 -133.67937 38803 ft 413 kts 145°
2026-04-22 05:07 59.69313 -133.60820 38783 ft 413 kts 145°
2026-04-22 05:07 59.64861 -133.53742 38781 ft 412 kts 145°
2026-04-22 05:08 59.60422 -133.46709 38769 ft 412 kts 144°
2026-04-22 05:08 59.55959 -133.39662 38782 ft 413 kts 145°
2026-04-22 05:09 59.51487 -133.32626 38793 ft 414 kts 146°
2026-04-22 05:09 59.46984 -133.25566 38792 ft 414 kts 145°
2026-04-22 05:10 59.42530 -133.18607 38791 ft 413 kts 145°
2026-04-22 05:10 59.38047 -133.11627 38778 ft 413 kts 145°
2026-04-22 05:11 59.33555 -133.04657 38757 ft 413 kts 145°
2026-04-22 05:11 59.29085 -132.97746 38742 ft 413 kts 145°
2026-04-22 05:12 59.24575 -132.90797 38764 ft 412 kts 145°
2026-04-22 05:12 59.20098 -132.83922 38781 ft 412 kts 145°
2026-04-22 05:13 59.15608 -132.77052 38795 ft 413 kts 145°
2026-04-22 05:13 59.11095 -132.70169 38788 ft 413 kts 146°
2026-04-22 05:14 59.06590 -132.63324 38782 ft 413 kts 145°
2026-04-22 05:14 59.02103 -132.56528 38793 ft 412 kts 145°
2026-04-22 05:15 58.97590 -132.49715 38801 ft 412 kts 145°
2026-04-22 05:15 58.93074 -132.42923 38818 ft 411 kts 146°
2026-04-22 05:16 58.88572 -132.36174 38831 ft 412 kts 146°
2026-04-22 05:16 58.84084 -132.29468 38828 ft 412 kts 147°
2026-04-22 05:17 58.79565 -132.22739 38873 ft 411 kts 147°
2026-04-22 05:17 58.75049 -132.16037 38877 ft 410 kts 147°
2026-04-22 05:18 58.68288 -132.06045 38867 ft 412 kts 147°
2026-04-22 05:18 58.63766 -131.99391 38859 ft 413 kts 147°
2026-04-22 05:19 58.59204 -131.92700 38854 ft 413 kts 147°
2026-04-22 05:19 58.54672 -131.86076 38863 ft 413 kts 147°
2026-04-22 05:20 58.50116 -131.79437 38875 ft 412 kts 147°
2026-04-22 05:20 58.45583 -131.72855 38866 ft 412 kts 147°
2026-04-22 05:21 58.41019 -131.66251 38851 ft 413 kts 147°
2026-04-22 05:21 58.36454 -131.59663 38863 ft 412 kts 147°
2026-04-22 05:22 58.31918 -131.53145 38852 ft 414 kts 147°
2026-04-22 05:22 58.27314 -131.46549 38881 ft 415 kts 147°
2026-04-22 05:23 58.22737 -131.40013 38872 ft 416 kts 147°
2026-04-22 05:23 58.18133 -131.33461 38855 ft 416 kts 148°
2026-04-22 05:24 58.13541 -131.26945 38867 ft 415 kts 148°
2026-04-22 05:24 58.08930 -131.20425 38885 ft 414 kts 148°
2026-04-22 05:25 58.04325 -131.13937 38900 ft 415 kts 148°
2026-04-22 05:25 57.99716 -131.07463 38924 ft 416 kts 148°
2026-04-22 05:26 57.95090 -131.00989 38947 ft 417 kts 148°
2026-04-22 05:26 57.90449 -130.94513 38917 ft 419 kts 148°
2026-04-22 05:27 57.85782 -130.88022 38887 ft 418 kts 148°
2026-04-22 05:27 57.81141 -130.81587 38880 ft 417 kts 148°
2026-04-22 05:28 57.76477 -130.75142 38837 ft 416 kts 148°
2026-04-22 05:28 57.71837 -130.68751 38844 ft 414 kts 148°
2026-04-22 05:29 57.67228 -130.62427 38853 ft 414 kts 148°
2026-04-22 05:29 57.62951 -130.55156 38869 ft 421 kts 132°
2026-04-22 05:30 57.59469 -130.46350 38894 ft 425 kts 129°
2026-04-22 05:30 57.56009 -130.37473 38900 ft 430 kts 129°
2026-04-22 05:31 57.52472 -130.28433 38917 ft 434 kts 130°
2026-04-22 05:31 57.48898 -130.19338 38910 ft 439 kts 130°
2026-04-22 05:32 57.45273 -130.10150 38865 ft 444 kts 130°
2026-04-22 05:32 57.41624 -130.00938 38842 ft 449 kts 130°
2026-04-22 05:33 57.37892 -129.91554 38844 ft 453 kts 130°
2026-04-22 05:33 57.34158 -129.82201 38858 ft 456 kts 130°
2026-04-22 05:34 57.30376 -129.72769 38846 ft 461 kts 130°
2026-04-22 05:34 57.26535 -129.63226 38851 ft 464 kts 130°
2026-04-22 05:35 57.22677 -129.53679 38856 ft 468 kts 130°
2026-04-22 05:35 57.18756 -129.44016 38855 ft 472 kts 130°
2026-04-22 05:36 57.14817 -129.34348 38853 ft 476 kts 131°
2026-04-22 05:36 57.10840 -129.24622 38854 ft 478 kts 131°
2026-04-22 05:37 57.06839 -129.14882 38870 ft 480 kts 131°
2026-04-22 05:37 57.02807 -129.05104 38869 ft 483 kts 131°
2026-04-22 05:38 56.98744 -128.95293 38871 ft 485 kts 131°
2026-04-22 05:38 56.94646 -128.85435 38849 ft 487 kts 131°
2026-04-22 05:39 56.90555 -128.75635 38842 ft 489 kts 131°
2026-04-22 05:39 56.86433 -128.65805 38837 ft 490 kts 131°
2026-04-22 05:40 56.82289 -128.55959 38844 ft 492 kts 131°
2026-04-22 05:40 56.78109 -128.46068 38836 ft 493 kts 131°
2026-04-22 05:41 56.73943 -128.36250 38843 ft 494 kts 131°
2026-04-22 05:41 56.69716 -128.26331 38853 ft 494 kts 132°
2026-04-22 05:42 56.65540 -128.16571 38861 ft 494 kts 132°
2026-04-22 05:42 56.61331 -128.06773 38863 ft 494 kts 132°
2026-04-22 05:43 56.57091 -127.96944 38868 ft 493 kts 132°
2026-04-22 05:43 56.52887 -127.87238 38853 ft 493 kts 132°
2026-04-22 05:44 56.48672 -127.77545 38851 ft 493 kts 132°
2026-04-22 05:44 56.44412 -127.67791 38840 ft 494 kts 132°
2026-04-22 05:45 56.40165 -127.58103 38850 ft 494 kts 132°
2026-04-22 05:45 56.35918 -127.48456 38869 ft 495 kts 132°
2026-04-22 05:46 56.31644 -127.38787 38868 ft 495 kts 133°
2026-04-22 05:46 56.27362 -127.29137 38873 ft 495 kts 133°
2026-04-22 05:47 56.23059 -127.19478 38870 ft 495 kts 133°
2026-04-22 05:47 56.18765 -127.09878 38853 ft 495 kts 134°
2026-04-22 05:48 56.14456 -127.00285 38853 ft 495 kts 133°
2026-04-22 05:48 56.10130 -126.90690 38848 ft 496 kts 133°
2026-04-22 05:49 56.05810 -126.81149 38859 ft 497 kts 133°
2026-04-22 05:49 56.01481 -126.71621 38871 ft 497 kts 133°
2026-04-22 05:50 55.97133 -126.62091 38856 ft 497 kts 133°
2026-04-22 05:50 55.92783 -126.52595 38857 ft 496 kts 133°
2026-04-22 05:51 55.88427 -126.43123 38867 ft 496 kts 133°
2026-04-22 05:51 55.84051 -126.33644 38857 ft 497 kts 134°
2026-04-22 05:52 55.79655 -126.24160 38828 ft 496 kts 134°
2026-04-22 05:52 55.75292 -126.14783 38837 ft 496 kts 135°
2026-04-22 05:53 55.70905 -126.05392 38832 ft 496 kts 135°
2026-04-22 05:53 55.66523 -125.96046 38842 ft 495 kts 135°
2026-04-22 05:54 55.62138 -125.86731 38841 ft 495 kts 135°
2026-04-22 05:54 55.57758 -125.77463 38848 ft 495 kts 135°
2026-04-22 05:55 55.53334 -125.68138 38837 ft 495 kts 135°
2026-04-22 05:55 55.48896 -125.58820 38828 ft 495 kts 135°
2026-04-22 05:56 55.44476 -125.49572 38839 ft 494 kts 135°
2026-04-22 05:56 55.40061 -125.40372 38841 ft 494 kts 135°
2026-04-22 05:57 55.35641 -125.31197 38819 ft 494 kts 136°
2026-04-22 05:57 55.31239 -125.22092 38819 ft 493 kts 136°
2026-04-22 05:58 55.26797 -125.12940 38831 ft 491 kts 136°
2026-04-22 05:58 55.22364 -125.03840 38815 ft 492 kts 136°
2026-04-22 05:59 55.17931 -124.94775 38823 ft 492 kts 136°
2026-04-22 05:59 55.13491 -124.85729 38805 ft 492 kts 136°
2026-04-22 06:00 55.09100 -124.76815 38815 ft 492 kts 136°
2026-04-22 06:00 55.04640 -124.67795 38826 ft 490 kts 136°
2026-04-22 06:01 55.00211 -124.58870 38807 ft 489 kts 136°
2026-04-22 06:01 54.95755 -124.49927 38815 ft 489 kts 136°
2026-04-22 06:02 54.91313 -124.41042 38805 ft 490 kts 136°
2026-04-22 06:02 54.86876 -124.32198 38836 ft 488 kts 137°
2026-04-22 06:03 54.82401 -124.23312 38836 ft 487 kts 137°
2026-04-22 06:03 54.77963 -124.14532 38821 ft 488 kts 137°
2026-04-22 06:04 54.73519 -124.05772 38828 ft 487 kts 137°
2026-04-22 06:04 54.69058 -123.97010 38817 ft 486 kts 138°
2026-04-22 06:05 54.64579 -123.88243 38810 ft 487 kts 138°
2026-04-22 06:05 54.60117 -123.79541 38811 ft 486 kts 138°
2026-04-22 06:06 54.55656 -123.70874 38811 ft 485 kts 138°
2026-04-22 06:06 54.51186 -123.62217 38810 ft 485 kts 138°
2026-04-22 06:07 54.46709 -123.53582 38813 ft 485 kts 138°
2026-04-22 06:07 54.42234 -123.44977 38828 ft 484 kts 138°
2026-04-22 06:08 54.37741 -123.36370 38826 ft 484 kts 138°
2026-04-22 06:08 54.33257 -123.27808 38827 ft 483 kts 139°
2026-04-22 06:09 54.28798 -123.19325 38823 ft 482 kts 139°
2026-04-22 06:09 54.24324 -123.10844 38832 ft 481 kts 139°
2026-04-22 06:10 54.19843 -123.02377 38830 ft 480 kts 139°
2026-04-22 06:10 54.15373 -122.93964 38815 ft 479 kts 139°
2026-04-22 06:11 54.10908 -122.85585 38813 ft 478 kts 139°
2026-04-22 06:11 54.06454 -122.77258 38811 ft 478 kts 139°
2026-04-22 06:12 54.01987 -122.68934 38820 ft 478 kts 139°
2026-04-22 06:12 53.97507 -122.60617 38815 ft 478 kts 139°
2026-04-22 06:13 53.93018 -122.52309 38824 ft 478 kts 139°
2026-04-22 06:13 53.88774 -122.43639 38832 ft 488 kts 128°
2026-04-22 06:14 53.85309 -122.33788 38843 ft 490 kts 127°
2026-04-22 06:14 53.81828 -122.23832 38821 ft 490 kts 127°
2026-04-22 06:15 53.78378 -122.13998 38835 ft 490 kts 127°
2026-04-22 06:15 53.74894 -122.04100 38846 ft 489 kts 127°
2026-04-22 06:16 53.71419 -121.94267 38841 ft 488 kts 127°
2026-04-22 06:16 53.67951 -121.84488 38843 ft 489 kts 127°
2026-04-22 06:17 53.64556 -121.74951 38835 ft 489 kts 127°
2026-04-22 06:17 53.61053 -121.65149 38845 ft 489 kts 127°
2026-04-22 06:18 53.57564 -121.55421 38856 ft 488 kts 127°
2026-04-22 06:18 53.54057 -121.45682 38857 ft 488 kts 127°
2026-04-22 06:19 53.50549 -121.35976 38865 ft 488 kts 127°
2026-04-22 06:19 53.47032 -121.26284 38881 ft 487 kts 127°
2026-04-22 06:20 53.43485 -121.16547 38881 ft 488 kts 128°
2026-04-22 06:20 53.39963 -121.06914 38876 ft 488 kts 128°
2026-04-22 06:21 53.36392 -120.97186 38875 ft 489 kts 128°
2026-04-22 06:21 53.32848 -120.87569 38886 ft 489 kts 128°
2026-04-22 06:22 53.29274 -120.77904 38904 ft 490 kts 128°
2026-04-22 06:22 53.25682 -120.68230 38907 ft 490 kts 128°
2026-04-22 06:23 53.22088 -120.58588 38900 ft 491 kts 128°
2026-04-22 06:23 53.18483 -120.48955 38890 ft 491 kts 128°
2026-04-22 06:24 53.13051 -120.34505 38876 ft 493 kts 128°
2026-04-22 06:25 53.09421 -120.24896 38883 ft 492 kts 128°
2026-04-22 06:25 53.05761 -120.15243 38861 ft 492 kts 129°
2026-04-22 06:26 53.02128 -120.05696 38860 ft 493 kts 129°
2026-04-22 06:26 52.98449 -119.96069 38862 ft 494 kts 129°
2026-04-22 06:27 52.94767 -119.86474 38878 ft 495 kts 129°
2026-04-22 06:27 52.91074 -119.76887 38864 ft 496 kts 129°
2026-04-22 06:28 52.87369 -119.67308 38867 ft 496 kts 129°
2026-04-22 06:28 52.83649 -119.57726 38865 ft 496 kts 128°
2026-04-22 06:29 52.79914 -119.48144 38889 ft 497 kts 129°
2026-04-22 06:29 52.76186 -119.38618 38901 ft 497 kts 129°
2026-04-22 06:30 52.72432 -119.29056 38892 ft 496 kts 129°
2026-04-22 06:30 52.68663 -119.19492 38900 ft 496 kts 130°
2026-04-22 06:31 52.64922 -119.10033 38895 ft 497 kts 130°
2026-04-22 06:31 52.61152 -119.00539 38878 ft 498 kts 130°
2026-04-22 06:32 52.57350 -118.91000 38878 ft 497 kts 130°
2026-04-22 06:32 52.53567 -118.81542 38886 ft 497 kts 130°
2026-04-22 06:33 52.49778 -118.72098 38872 ft 497 kts 130°
2026-04-22 06:33 52.45981 -118.62670 38884 ft 497 kts 130°
2026-04-22 06:34 52.42166 -118.53235 38889 ft 498 kts 130°
2026-04-22 06:34 52.38331 -118.43787 38895 ft 498 kts 130°
2026-04-22 06:35 52.34487 -118.34353 38891 ft 499 kts 131°
2026-04-22 06:35 52.30664 -118.25005 38880 ft 499 kts 131°
2026-04-22 06:36 52.26798 -118.15588 38883 ft 499 kts 131°
2026-04-22 06:36 52.22934 -118.06206 38891 ft 499 kts 131°
2026-04-22 06:37 52.19062 -117.96843 38902 ft 500 kts 131°
2026-04-22 06:37 52.15160 -117.87444 38891 ft 501 kts 131°
2026-04-22 06:38 52.11269 -117.78107 38888 ft 501 kts 131°
2026-04-22 06:38 52.07351 -117.68739 38892 ft 501 kts 131°
2026-04-22 06:39 52.03458 -117.59462 38900 ft 501 kts 131°
2026-04-22 06:39 51.99517 -117.50107 38901 ft 502 kts 131°
2026-04-22 06:40 51.95576 -117.40785 38910 ft 502 kts 131°
2026-04-22 06:40 51.91620 -117.31464 38907 ft 502 kts 132°
2026-04-22 06:41 51.87677 -117.22207 38912 ft 502 kts 132°
2026-04-22 06:41 51.83725 -117.12951 38992 ft 501 kts 132°
2026-04-22 06:42 51.79758 -117.03701 38915 ft 502 kts 132°
2026-04-22 06:42 51.75782 -116.94460 38899 ft 501 kts 133°
2026-04-22 06:43 51.71827 -116.85294 38914 ft 500 kts 132°
2026-04-22 06:43 51.67836 -116.76074 38915 ft 500 kts 132°
2026-04-22 06:44 51.63855 -116.66914 38895 ft 501 kts 132°
2026-04-22 06:44 51.59842 -116.57714 38888 ft 502 kts 132°
2026-04-22 06:45 51.55828 -116.48548 38910 ft 502 kts 132°
2026-04-22 06:45 51.51814 -116.39417 38910 ft 504 kts 132°
2026-04-22 06:46 51.47766 -116.30244 38890 ft 504 kts 133°
2026-04-22 06:46 51.43735 -116.21142 38899 ft 503 kts 133°
2026-04-22 06:47 51.39696 -116.12045 38902 ft 502 kts 133°
2026-04-22 06:47 51.35626 -116.02909 38897 ft 502 kts 134°
2026-04-22 06:48 51.31585 -115.93870 38909 ft 502 kts 133°
2026-04-22 06:48 51.27539 -115.84855 38914 ft 502 kts 133°
2026-04-22 06:49 51.23451 -115.75781 38922 ft 503 kts 133°
2026-04-22 06:49 51.19372 -115.66763 38926 ft 504 kts 133°
2026-04-22 06:50 51.15273 -115.57732 38937 ft 504 kts 133°
2026-04-22 06:50 51.11153 -115.48686 38941 ft 504 kts 133°
2026-04-22 06:51 51.07061 -115.39734 38943 ft 504 kts 133°
2026-04-22 06:51 51.02948 -115.30767 38942 ft 504 kts 134°
2026-04-22 06:52 50.98807 -115.21769 38935 ft 504 kts 134°
2026-04-22 06:52 50.94669 -115.12811 38943 ft 505 kts 135°
2026-04-22 06:53 50.90509 -115.03843 38936 ft 506 kts 134°
2026-04-22 06:53 50.86357 -114.94921 38928 ft 505 kts 134°
2026-04-22 06:54 50.82200 -114.86018 38936 ft 505 kts 134°
2026-04-22 06:54 50.78019 -114.77096 38926 ft 505 kts 134°
2026-04-22 06:55 50.73847 -114.68223 38924 ft 504 kts 134°
2026-04-22 06:55 50.69675 -114.59378 38919 ft 503 kts 134°
2026-04-22 06:56 50.65512 -114.50581 38896 ft 503 kts 134°
2026-04-22 06:56 50.61329 -114.41770 38873 ft 503 kts 134°
2026-04-22 06:57 50.57161 -114.33018 38881 ft 502 kts 135°
2026-04-22 06:57 50.52966 -114.24237 38869 ft 501 kts 134°
2026-04-22 06:58 50.48772 -114.15492 38861 ft 502 kts 134°
2026-04-22 06:58 50.44571 -114.06765 38856 ft 503 kts 134°
2026-04-22 06:59 50.40367 -113.98064 38841 ft 503 kts 135°
2026-04-22 06:59 50.36140 -113.89346 38840 ft 503 kts 135°
2026-04-22 07:00 50.31936 -113.80704 38826 ft 502 kts 134°
2026-04-22 07:00 50.27703 -113.72033 38812 ft 503 kts 134°
2026-04-22 07:01 50.23542 -113.63540 38814 ft 503 kts 135°
2026-04-22 07:01 50.19295 -113.54901 38806 ft 503 kts 134°